Flag Weather past 2 weeks in Pontiac, Michigan, U.S.A.

Now
44 °F

Overcast.


Feels Like: 41 °F
Forecast: 35 / 44 °F
Wind: 6 mph from Southwest

Location: Oakland County International Airport

Current Time: Oct 31, 2014 at 4:49:54 AM

Latest Report: Oct 31, 2014 at 3:53 AM


Visibility: 10 mi

Pressure: 29.94 "Hg

Humidity: 73%

Dew point: 36 °F

Location of PontiacLocation

Historic Weather in Pontiac — Graph

°F

Pontiac temperature yesterday

Maximum temperature yesterday: 48 °F (at 2:53 PM)
Minimum temperature yesterday: 36 °F (at 7:53 AM)
Average temperature yesterday: 43 °F

Past Weeks' High & Low Weather Summary

 TemperatureHumidityPressure
High69 °F (Oct 27, 10:53 PM)96% (Oct 16, 8:53 AM)30.35 "Hg (Oct 16, 8:53 AM)
Low31 °F (Oct 19, 7:53 AM)26% (Oct 25, 5:53 PM)29.49 "Hg (Oct 17, 2:53 PM)
Average49 °F72%29.94 "Hg
* Reported Oct 16 3:53 AM — Oct 31 3:53 AM, Pontiac, Weather by CustomWeather, © 2014

Note: Actual official high and low records may vary slightly from our data, if they occured in-between our weather recording intervals... More about our weather records

Advertising

Pontiac weather history for previous 24 hours

 ConditionsComfort  
Time TempWeatherWind HumidityBarometerVisibility
3:53 AM
Oct 31
44 °FOvercast.6 mph73%29.94 "Hg10 mi
2:53 AM44 °FOvercast.5 mph71%29.96 "Hg10 mi
1:53 AM45 °FOvercast.7 mph68%29.97 "Hg10 mi
12:53 AM45 °FOvercast.6 mph68%29.98 "Hg10 mi
11:53 PM
Oct 30
45 °FOvercast.6 mph71%30.00 "Hg10 mi
10:53 PM45 °FPassing clouds.6 mph68%30.01 "Hg10 mi
9:53 PM45 °FLight rain. Mostly cloudy.6 mph71%30.02 "Hg10 mi
8:53 PM46 °FOvercast.6 mph63%30.05 "Hg10 mi
7:53 PM46 °FOvercast.5 mph63%30.06 "Hg10 mi
6:53 PM47 °FOvercast.5 mph61%30.06 "Hg10 mi
5:53 PM47 °FOvercast.7 mph59%30.06 "Hg10 mi
4:53 PM48 °FPartly sunny.8 mph54%30.06 "Hg10 mi
3:53 PM48 °FPartly sunny.10 mph54%30.06 "Hg10 mi
2:53 PM48 °FPartly sunny.10 mph54%30.08 "Hg10 mi
1:53 PM47 °FBroken clouds.7 mph54%30.09 "Hg10 mi
12:53 PM47 °FMostly cloudy.8 mph59%30.12 "Hg10 mi
11:53 AM46 °FPartly sunny.7 mph61%30.13 "Hg10 mi
10:53 AM45 °FOvercast.No wind63%30.14 "Hg10 mi
9:53 AM42 °FScattered clouds.No wind73%30.14 "Hg10 mi
8:53 AM36 °FPassing clouds.3 mph89%30.14 "Hg10 mi
7:53 AM36 °FPassing clouds.No wind89%30.13 "Hg10 mi
7:00 AM37 °FOvercast.5 mph89%30.11 "Hg10 mi
5:53 AM39 °FOvercast.6 mph82%30.12 "Hg10 mi
4:53 AM40 °FOvercast.6 mph80%30.11 "Hg10 mi
Weather by CustomWeather, © 2014

See weather overviewHow to use our weather pages